Regional Weather Roundup
Issued by NWS Sterling, VA

Home | Current Version | Previous Version | Text Only | Print | Product List | Glossary Off
Versions: 1 2 3 4 5 6 7 8 9 10 11 12 13 14 15 16 17 18 19 20 21 22 23 24 25 26 27 28 29 30 31 32 33 34 35 36 37 38 39 40 41 42 43 44 45 46 47 48 49 50

000
ASUS41 KLWX 160510
RWRLWX

REGIONAL WEATHER ROUNDUP
NATIONAL WEATHER SERVICE BALTIMORE MD/WASHINGTON DC
100 AM EDT TUE SEP 16 2014

Note: "FAIR" indicates few or no clouds below 12,000 feet
with no significant weather and/or obstructions to visibility.
 TC=TEMPERATURE CELSIUS

 * =Non NWS site. Station does not report precipitation (e.g. rain,
    snow, etc.), thunder, or fog.

DCZ001-MDZ009-015-VAZ040>042-051-053>054-160600-
WASHINGTON METRO

CITY           SKY/WX    TMP DP  RH WIND       PRES   REMARKS
WASHINGTON NAT CLOUDY    68  60  75 S6        30.04F
DULLES         CLOUDY    62  59  90 S5        30.04S
ANDREWS AFB    CLOUDY    60  59  95 S5        30.04F
QUANTICO       CLOUDY    67  61  81 SW7       30.04F
COLLEGE PARK*  CLOUDY    63  61  94 CALM      30.03F
LEESBURG*      CLOUDY    63  61  94 SW3       30.05S
MANASSAS*      CLOUDY    63  63 100 CALM      30.04R
GAITHERSBURG*  CLOUDY    63  59  88 CALM      30.08S

$$

MDZ006>007-011-014-160600-
BALTIMORE METRO

CITY           SKY/WX    TMP DP  RH WIND       PRES   REMARKS
BWI AIRPORT    CLOUDY    62  57  83 CALM      30.04F
MD SCIENCE CTR   N/A     65  57  75 MISG      30.05F
MARTIN STATE   CLOUDY    66  61  82 CALM      30.06S
ANNAPOLIS      CLOUDY    67  60  78 S7        30.04F
FORT MEADE*    CLOUDY    55  54  94 CALM      30.06S

$$

MDZ012-015-019>023-160600-
MARYLAND EASTERN SHORE

CITY           SKY/WX    TMP DP  RH WIND       PRES   REMARKS
OCEAN CITY     MOCLDY    67  57  70 VRB3      30.07F
SALISBURY        N/A    N/A N/A N/A MISG        N/A
BAY BRIDGE AP*   N/A     68  61  77 S8        30.04F
CAMBRIDGE*     MOCLDY    66  61  82 CALM      30.05F
EASTON*        MOCLDY    64  61  92 CALM      30.09F

$$

MDZ017>025-160600-
SOUTHERN MARYLAND

CITY           SKY/WX    TMP DP  RH WIND       PRES   REMARKS
PATUXENT RIVER PTCLDY    66  61  84 S9        30.04F
ST INIGOES     PTCLDY    67  60  78 S8        30.04F
LEONARDTOWN*   PTCLDY    64  59  82 S3        30.06F

$$

MDZ003>005-160600-
NORTH CENTRAL MARYLAND

CITY           SKY/WX    TMP DP  RH WIND       PRES   REMARKS
FREDERICK*     CLOUDY    61  59  94 CALM      30.07F
HAGERSTOWN APT CLOUDY    63  55  75 S5        30.03F
WESTMINSTER*   CLOUDY    63  55  77 CALM      30.05F

$$

MDZ501>502-160600-
WESTERN MARYLAND

CITY           SKY/WX    TMP DP  RH WIND       PRES   REMARKS
OAKLAND*       MOCLDY    54 N/A N/A SW6       30.10F
CUMBERLAND*    MOCLDY    59  54  82 N3        30.09S

$$

VAZ025>031-160600-
SHENANDOAH VALLEY

CITY           SKY/WX    TMP DP  RH WIND       PRES   REMARKS
WINCHESTER*    CLOUDY    63  57  82 NW5       30.04R
STAUNTON*      CLOUDY    65  59  82 CALM      30.08R

$$

WVZ021-048>050-054>055-160600-
EASTERN WEST VIRGINIA PANHANDLE

CITY           SKY/WX    TMP DP  RH WIND       PRES   REMARKS
MARTINSBURG    CLOUDY    62  55  77 E5        30.03F
PETERSBURG*    MOCLDY    58  56  95 CALM      30.06F

$$

VAZ036>039-050-160600-
CENTRAL FOOTHILLS

CITY           SKY/WX    TMP DP  RH WIND       PRES   REMARKS
CHARLOTTESVILL CLOUDY    66  62  87 SW6       30.04S
ORANGE*        CLOUDY    64  61  88 CALM      30.06R

$$

VAZ055>057-160600-
NORTH AND CENTRAL PIEDMONT

CITY           SKY/WX    TMP DP  RH WIND       PRES   REMARKS
FREDERICKSBRG* CLOUDY    67  62  83 S6        30.03S
STAFFORD*      NOT AVBL

$$

NCZ024-NYZ072-PAZ021-071-VAZ022-071-160600-
OTHER REGIONAL OBSERVATIONS

CITY           SKY/WX    TMP DP  RH WIND       PRES   REMARKS
NEW YORK CITY  MOCLDY    63  52  67 CALM      30.09F
PHILADELPHIA   CLOUDY    61  52  72 CALM      30.08F
PITTSBURGH     CLOUDY    60  52  74 SW5       30.04S
ROANOKE        MOCLDY    67  62  84 CALM      30.09S
RICHMOND       CLOUDY    66  62  87 S6        30.05F
RALEIGH        LGT RAIN  69  65  86 SW5       30.09F

$$

ANZ530>537-160600-
MARINE OBSERVATIONS

STATION/POSITION TIME  TEMP    WIND        PRES
                       AIR SEA DIR/SP/G
                 (UTC) (F)     (DEG/KT/KT) (MB)
THOMAS PT LIGHT  0500   69 74  200/ 17/ 18 1018.1F
BALT KEY BRIDGE  0500   67     170/  9/ 10 1016.8F
COVE POINT       0500   68     200/ 12/ 14 1017.3F
LEWISETTA        0500   66 74              1017.1
SOLOMONS ISLAND  0500      76                N/A
PINEY POINT      0400          210/ 14/ 15   N/A

$$




USA.gov is the U.S. government's official web portal to all federal, state and local government web resources and services.